SCP
0 0 0 0 0 0 0 0 0 0 0 0 0 0 0 0 0 0 0 0 0 0 0 0 0 0 0 0 0 0 0 0 0 0 0 0 0 0 0 0 0 0 0 0
0 0 0 0 0 0 0 0 0 0 0 0 0 0 0 0 0 0 0 0 0 0 0 0 0 0 0 0 0 0 0 0 0 0 0 0 0 0 0 0 0 0 0 0
0 0 0 0 0 0 0 0 0 0 0 0 0 0 0 0 0 0 0 0 0 0 0 0 0 0 0 0 0 0 0 0 0 0 0 0 0 0 0 0 0 0 0 0
0 0 0 0 0 0 0 0 0 0 0 0 0 0 0 0 0 0 0 0 0 0 0 0 0 0 0 0 0 0 0 0 0 0 0 0 0 0 0 0 0 0 0 0
0 0 0 0 0 0 0 0 0 0 0 0 0 0 0 0 0 0 0 0 0 0 0 0 0 0 0 0 0 0 0 0 0 0 0 0 0 0 0 0 0 0 0 0
0 0 0 0 0 0 0 0 0 0 0 0 0 0 0 0 0 0 0 0 0 0 0 0 0 0 0 0 0 0 0 0 0 0 0 0 0 0 0 0 0 0 0 0
0 0 0 0 0 0 0 0 0 0 0 0 0 0 0 0 0 0 0 0 0 0 0 0 0 0 0 0 0 0 0 0 0 0 0 0 0 0 0 0 0 0 0 0
0 0 0 0 0 0 0 0 0 0 0 0 0 0 0 0 0 0 0 0 0 0 0 0 0 0 0 0 0 0 0 0 0 0 0 0 0 0 0 0 0 0 0 0
0 0 0 0 0 0 0 0 0 0 0 0 0 0 0 0 0 0 0 0 0 0 0 0 0 0 0 0 0 0 0 0 0 0 0 0 0 0 0 0 0 0 0 0
0 0 0 0 0 0 0 0 0 0 0 0 0 0 0 0 0 0 0 0 0 0 0 0 0 0 0 0 0 0 0 0 0 0 0 0 0 0 0 0 0 0 0 0
0 0 0 0 0 0 0 0 0 0 0 0 0 0 0 0 0 0 0 0 0 0 0 0 0 0 0 0 0 0 0 0 0 0 0 0 0 0 0 0 0 0 0 0
0 0 0 0 0 0 0 0 0 0 0 0 0 0 0 0 0 0 0 0 0 0 0 0 0 0 0 0 0 0 0 0 0 0 0 0 0 0 0 0 0 0 0 0
0 0 0 0 0 0 0 0 0 0 0 0 0 0 0 0 0 0 0 0 0 0 0 0 0 0 0 0 0 0 0 0 0 0 0 0 0 0 0 0 0 0 0 0
0 0 0 0 0 0 0 0 0 0 0 0 0 0 0 0 0 0 0 0 0 0 0 0 0 0 0 0 0 0 0 0 0 0 0 0 0 0 0 0 0 0 0 0
0 0 0 0 0 0 0 0 0 0 0 0 0 0 0 0 0 0 0 0 0 0 0 0 0 0 0 0 0 0 0 0 0 0 0 0 0 0 0 0 0 0 0 0
0 0 0 0 0 0 0 0 0 0 0 0 0 0 0 0 0 0 0 0 0 0 0 0 0 0 0 0 0 0 0 0 0 0 0 0 0 0 0 0 0 0 0 0
0 0 0 0 0 0 0 0 0 0 0 0 0 0 0 0 0 0 0 0 0 0 0 0 0 0 0 0 0 0 0 0 0 0 0 0 0 0 0 0 0 0 0 0
-0 0 0 0 0 0 0 0 0 0 0 0 0 0 0 0 0 0 0 0 0 0 0 0 0 0 0 0 0 0 0 0 0 0 0 0 0 0 0 0 0 0 0 0
0 0 0 0 0 0 0 0 0 0 0 0 0 0 0 0 0 0 0 0 0 0 0 0 0 0 0 0 0 0 0 0 0 0 0 0 0 0 0 0 0 0 0 0
0 0 0 0 0 0 0 0 0 0 0 0 0 0 0 0 0 0 0 0 0 0 0 0 0 0 0 0 0 0 0 0 0 0 0 0 0 0 0 0 0 0 0 0
0 0 0 -0 0 0 0 0 0 0 0 0 0 0 0 0 0 0 0 0 0 0 0 0 0 0 0 0 0 0 0 0 0 0 0 0 0 0 0 0 0 0 0 0
0 0 0 0 0 0 0 0 0 0 0 0 0 0 0 0 0 0 0 0 0 0 0 0 0 0 0 0 0 0 0 0 0 0 0 0 0 0 0 0 0 0 0 0
0 0 0 0 0 0 0 0 0 0 0 0 0 0 0 0 0 0 0 0 0 0 0 0 0 0 0 0 0 0 0 0 0 0 0 0 0 0 0 0 0 0 0 0
0 0 0 0 0 0 0 0 0 0 0 0 0 0 0 0 0 0 0 0 0 0 0 0 0 0 0 0 0 0 0 0 0 0 0 0 0 0 0 0 0 0 0 0
0 0 0 0 0 0 0 0 0 0 0 0 0 0 0 0 0 0 0 0 0 0 0 0 0 0 0 0 0 0 0 0 0 0 0 0 0 0 0 0 0 0 0 0
0 0 0 0 0 0 0 0 0 0 0 0 0 0 0 0 0 0 0 0 0 0 0 0 0 0 0 0 0 0 0 0 0 0 0 0 0 0 0 0 0 0 0 0
0 0 0 0 0 0 0 0 0 0 0 0 0 0 0 0 0 0 0 0 0 0 0 0 0 0 0 0 0 0 0 0 0 0 0 0 0 0 0 0 0 0 0 0
Wind_Speed
5 4 5 7 11 13 13 12 10 10 11 9 6 5 4 2 1 0 0 1 1 2 2 3 3 3 3 3 3 3 3 4 4 4 4 4 5 5 5 6 6 6 7 7
4 4 5 8 11 15 15 15 14 13 13 7 6 4 4 3 2 2 2 2 2 3 3 3 3 3 2 2 2 3 3 3 3 3 4 4 4 5 5 6 6 6 6 7
4 4 4 10 12 14 12 12 13 14 10 4 5 5 5 5 4 4 4 3 4 4 3 3 2 2 2 2 2 2 2 3 3 3 4 4 4 5 5 6 6 6 7 7
2 4 9 3 1 8 10 9 10 8 6 5 5 6 6 5 4 4 4 4 4 4 3 3 2 1 1 1 1 2 2 3 3 3 4 4 4 5 5 5 6 6 7 7
4 5 6 3 1 4 7 7 6 8 6 4 3 3 3 1 3 4 4 4 4 3 3 2 1 1 0 1 1 2 2 3 3 3 4 4 5 5 5 5 6 6 7 7
4 5 6 0 1 1 4 5 2 5 5 3 2 4 2 3 4 4 4 3 3 2 2 1 1 0 0 1 2 2 3 3 3 3 4 5 5 5 5 5 6 6 7 7
6 5 4 1 1 3 5 1 1 2 3 3 4 4 3 4 4 3 3 3 3 2 1 1 1 0 1 1 2 3 3 3 3 3 4 4 4 4 5 5 5 6 7 7
4 6 4 2 3 3 2 3 2 2 2 2 2 2 2 3 3 3 3 3 3 2 2 2 1 0 1 2 3 2 2 2 3 3 3 3 3 4 4 4 5 6 6 7
4 3 2 3 2 2 2 3 4 3 3 2 2 2 2 2 3 3 3 3 3 3 3 3 2 1 2 3 3 2 2 3 3 3 3 3 3 4 4 4 4 5 5 6
3 4 3 3 3 3 3 4 3 3 3 2 2 1 1 2 2 3 3 3 3 3 3 3 3 2 2 3 3 2 2 3 3 3 3 3 3 3 3 4 4 5 5 6
5 4 4 3 3 3 3 3 3 3 2 1 1 1 1 2 2 2 2 3 3 2 3 3 3 3 3 3 3 3 3 3 3 3 3 3 3 3 4 4 4 5 5 6
5 4 4 5 4 4 3 3 2 1 2 1 0 1 2 2 2 2 2 3 3 3 3 3 4 4 4 4 3 3 3 3 2 2 3 3 3 3 3 4 7 8 8 8
5 5 5 4 3 3 3 2 1 1 0 1 1 1 1 2 2 2 2 3 3 3 3 3 4 4 4 4 3 3 3 3 2 2 2 3 3 4 5 5 5 7 8 9
3 3 3 3 3 2 1 1 2 2 2 2 1 2 2 2 2 3 3 3 3 3 3 3 4 4 4 4 3 3 3 3 3 2 2 3 3 4 4 5 6 5 6 8
3 3 3 2 2 2 1 1 2 2 2 2 2 2 2 2 3 3 3 3 3 3 3 4 4 5 5 4 3 3 2 2 2 3 3 3 3 4 4 4 5 5 5 6
3 2 1 0 1 1 1 2 2 1 2 2 2 3 3 2 2 3 3 3 3 3 4 4 4 5 5 4 3 3 2 3 4 3 3 3 3 3 3 4 4 4 5 5
1 2 2 1 1 1 1 1 1 1 1 1 2 2 2 2 2 3 4 4 3 3 4 4 5 5 5 4 3 3 2 3 4 3 3 3 3 3 3 4 4 4 4 5
2 3 3 2 2 1 1 1 1 1 1 1 1 1 2 2 3 3 4 4 3 4 4 5 5 5 5 4 4 3 3 2 2 2 3 3 3 3 4 4 4 5 4 5
3 2 2 1 1 1 1 1 1 1 1 1 1 1 2 2 2 3 3 3 4 4 5 6 7 5 5 5 5 3 3 3 3 3 2 4 4 3 3 4 4 4 4 4
3 3 3 3 3 2 2 1 1 1 1 1 1 2 2 2 3 3 3 3 3 3 5 6 6 5 5 4 5 3 3 3 3 3 3 3 3 4 4 4 4 4 4 4
4 4 4 3 3 3 2 2 1 1 1 1 1 1 2 2 3 2 2 3 4 5 5 6 4 4 4 4 5 3 3 3 3 3 3 3 3 4 4 4 4 4 4 4
3 3 3 3 3 3 3 2 2 2 2 2 2 2 1 2 3 3 2 2 4 6 5 4 4 5 6 6 3 3 3 3 3 3 3 3 4 4 4 4 4 4 4 4
2 2 2 2 2 2 3 3 2 2 2 2 2 1 2 2 2 2 3 3 4 6 5 4 5 8 8 5 3 3 3 3 3 3 3 4 4 4 4 4 4 4 4 4
2 2 2 2 2 2 3 3 3 2 2 2 2 2 2 2 2 2 2 5 6 7 4 5 8 8 7 4 3 3 3 3 3 3 4 4 4 4 4 4 4 4 4 5
2 2 2 2 2 2 2 2 2 2 3 2 3 3 3 2 2 3 3 4 6 6 4 5 8 8 5 3 3 3 3 3 4 4 4 4 4 4 4 4 4 4 4 4
2 2 1 1 1 1 1 1 1 2 2 2 3 3 3 3 3 3 3 3 4 5 4 4 4 5 3 3 3 3 3 4 4 4 4 4 5 4 4 4 5 4 4 4
1 1 1 1 2 1 1 1 1 2 2 2 3 3 3 3 3 3 4 3 3 3 3 3 3 3 3 3 4 4 4 4 4 4 4 4 4 4 4 5 4 4 3 3
Wind_Direction
266 265 214 220 212 209 217 224 231 240 247 264 280 293 297 295 295 267 217 251 258 258 258 250 247 250 247 255 259 251 246 250 255 263 266 269 273 276 276 276 278 279 280 279
244 244 241 243 230 219 224 231 240 255 261 269 279 286 285 279 269 253 254 258 260 263 265 256 256 261 262 264 267 256 253 263 270 267 270 274 277 280 279 281 284 284 282 283
232 236 249 240 222 212 214 220 225 235 247 261 269 266 266 266 257 255 259 262 261 262 260 259 264 266 265 278 287 269 269 280 282 273 275 276 278 280 282 285 288 287 285 287
201 193 229 239 207 207 214 224 225 240 260 270 274 285 282 270 263 266 273 271 268 269 270 271 271 272 291 303 293 294 295 292 292 285 283 285 285 286 288 289 288 287 289 292
201 219 251 262 211 189 205 229 224 235 251 276 311 292 264 305 302 291 287 286 281 274 269 271 275 291 340 332 322 311 303 301 303 295 291 289 287 287 290 291 291 289 292 292
203 220 231 291 82 205 192 229 206 230 248 259 253 257 280 344 321 315 316 317 309 299 289 281 295 352 2 331 320 318 319 312 302 295 290 289 291 293 294 293 292 295 293 291
213 230 248 21 38 178 208 237 24 234 245 237 247 273 315 327 334 337 335 337 332 332 326 316 319 329 314 310 308 320 326 323 312 299 296 295 298 303 307 308 306 302 299 297
204 218 234 110 149 197 324 348 321 301 277 263 301 314 318 330 343 348 352 356 359 7 2 354 355 353 306 310 319 328 330 326 323 319 316 309 306 309 309 308 305 306 306 307
211 234 357 175 211 293 324 312 318 317 305 298 297 304 326 333 341 348 355 359 4 14 11 9 6 357 327 326 329 332 335 330 327 326 323 317 310 309 310 310 306 308 310 312
243 260 275 266 294 312 313 309 314 315 310 298 288 297 317 332 339 347 351 358 2 12 12 4 0 358 349 335 325 323 326 327 327 326 327 326 321 315 312 311 311 312 312 311
248 275 288 271 287 304 310 317 324 333 330 301 238 286 311 323 328 336 342 346 352 357 351 346 350 353 355 346 333 323 325 328 322 322 323 321 320 318 308 307 312 310 310 311
246 253 263 278 293 297 297 301 304 332 346 343 273 269 306 316 324 331 341 347 352 353 350 345 346 352 354 350 335 323 322 323 319 323 322 317 316 319 321 303 315 313 311 308
278 290 285 286 291 301 295 305 327 353 10 6 6 8 341 334 340 355 355 351 349 346 344 341 345 350 348 344 335 322 314 315 319 322 319 319 319 318 319 321 316 314 316 318
296 299 282 291 299 317 334 6 42 52 46 48 41 32 23 18 13 10 1 351 347 345 343 342 346 348 344 337 331 322 318 321 320 317 317 316 316 315 316 319 322 323 325 328
324 316 297 307 323 351 25 67 82 64 48 40 39 33 28 24 11 359 353 351 355 356 352 350 350 347 346 339 339 339 331 331 326 319 317 314 313 312 314 314 314 317 322 329
325 335 330 345 353 13 49 72 83 61 40 28 22 17 12 14 4 356 356 355 357 353 349 351 347 342 343 341 341 338 336 334 322 316 315 316 315 315 315 315 318 321 325 328
310 306 314 326 333 351 35 55 68 54 28 14 0 356 2 16 14 6 3 1 0 357 353 352 343 339 342 345 340 330 326 327 323 314 315 315 313 311 310 311 314 317 320 324
309 287 278 266 265 281 48 43 44 32 0 340 348 9 24 26 12 359 356 359 6 10 4 353 342 340 344 346 339 329 324 322 320 316 312 309 308 306 306 307 309 311 313 320
353 349 341 336 325 109 93 64 35 5 0 8 25 31 25 14 360 350 352 3 3 356 347 344 343 345 343 340 333 321 316 313 312 311 306 307 306 306 305 304 308 312 314 318
11 18 40 49 53 65 73 67 63 51 33 39 65 53 33 11 357 350 356 360 347 332 324 329 334 335 333 330 328 317 311 307 308 310 311 308 308 309 309 310 311 312 314 316
17 31 43 51 50 46 50 54 60 51 27 45 66 49 15 354 348 342 347 347 340 339 332 332 332 328 325 323 320 316 314 312 312 312 312 312 311 310 309 309 310 312 312 311
13 27 36 43 50 44 34 34 48 51 41 39 43 37 14 352 346 345 339 317 319 327 328 324 323 328 331 326 323 325 324 322 319 316 313 308 305 305 308 310 310 311 310 309
12 21 28 34 44 48 38 33 36 43 38 28 16 359 343 326 322 319 323 323 323 325 326 323 329 335 336 334 330 329 328 324 317 313 311 308 305 304 305 307 307 307 307 309
16 20 22 28 50 60 44 23 19 24 22 6 356 341 325 317 321 316 304 312 323 325 325 329 336 339 339 337 333 330 325 319 313 310 308 306 306 305 304 304 304 305 307 310
15 18 27 36 45 39 28 15 16 17 15 9 358 348 336 321 305 307 310 314 322 326 324 331 339 340 339 332 331 325 319 314 312 308 306 308 309 309 307 305 306 308 309 309
7 4 3 0 358 355 353 356 1 357 356 352 349 347 343 335 321 311 309 315 319 323 325 323 327 332 330 327 324 319 314 313 314 314 311 308 307 306 305 305 307 307 307 308
14 13 11 16 14 4 353 350 349 343 338 335 330 331 332 330 328 329 327 324 325 326 324 322 323 325 323 320 317 315 313 311 311 311 311 310 309 307 307 306 306 306 306 307